Miscellaneous Local Product
Issued by NWS Hastings, NE

Home | Current Version | Previous Version | Graphics & Text | Print | Product List | Glossary On
Versions: 1 2 3 4 5 6 7 8 9 10 11 12 13 14 15 16 17 18 19 20 21 22 23 24 25 26 27 28 29 30 31 32 33 34 35 36 37 38 39 40 41 42 43 44 45 46 47 48 49 50
000
AXUS43 KGID 180802
MISGRI

GID CWA HOURLY WEATHER ROUNDUP
NATIONAL WEATHER SERVICE HASTINGS NE
300 AM CDT FRI AUG 18 2017

NOTE: "FAIR" INDICATES FEW OR NO CLOUDS BELOW 12,000 FEET WITH NO
SIGNIFICANT WEATHER AND/OR OBSTRUCTIONS TO VISIBILITY.

...SOUTH CENTRAL NEBRASKA...

CITY           SKY/WX    TMP DP  RH WIND       PRES   REMARKS
GRAND ISLAND   CLOUDY    64  60  87 N6        30.01R
HASTINGS       CLOUDY    68  57  68 N6        29.99R
KEARNEY        CLOUDY    67  59  75 N14       30.01R
ORD            CLOUDY    64  56  75 S6        29.91F
YORK           MOCLDY    64  61  88 NE8       29.98S
AURORA         CLOUDY    64  60  86 N3        29.99R
LEXINGTON      LGT RAIN  66  57  73 NE10      30.01R
HOLDREGE       PTCLDY    64  55  73 W8        29.98S
HEBRON         CLOUDY    69  61  74 S7        29.92F

...NEBRASKA PANHANDLE...

CITY           SKY/WX    TMP DP  RH WIND       PRES   REMARKS
CHADRON        CLEAR     52  49  89 SW7       30.05R
ALLIANCE       CLEAR     50  48  93 MISG      30.08R
SCOTTSBLUFF    CLEAR     56  50  80 N6        30.10S
SIDNEY         CLOUDY    55  50  83 NW12      30.12R

...WESTERN AND NORTH CENTRAL NEBRASKA...

CITY           SKY/WX    TMP DP  RH WIND       PRES   REMARKS
VALENTINE      CLEAR     62  56  80 SW12      29.96S
AINSWORTH      CLEAR     60  59  98 SW12      29.97R
ONEILL         CLOUDY    63  61  94 S5        29.92S
BROKEN BOW     CLOUDY    64  57  78 SE5       29.98R
IMPERIAL       PTCLDY    62  57  83 N7        30.02S
NORTH PLATTE   CLOUDY    63  58  83 CALM      30.02R
MCCOOK         CLOUDY    69  56  62 SW10      29.96S

...EASTERN NEBRASKA...

CITY           SKY/WX    TMP DP  RH WIND       PRES   REMARKS
NORFOLK        LGT RAIN  63  60  90 N15G26    29.92F
SO SIOUX CITY  CLOUDY    67  64  90 W8        29.92S
TEKAMAH        PTCLDY    69  62  78 W15G28    29.94R
COLUMBUS       CLOUDY    64  61  90 NE5       29.95F
ALBION         TSTM      67  59  74 W15G22    29.96S
OMAHA EPPLEY   MOCLDY    67  61  81 SE6       29.91F
OFFUTT AFB     PTCLDY    59  58  96 CALM      29.90F
MILLARD        MOCLDY    68  64  89 W15G30    29.97R
LINCOLN        MOCLDY    71  61  70 N14G24    29.98R
NEBRASKA CITY  PTCLDY    61  61 100 S3        29.93F
BEATRICE       CLOUDY    66  61  82 S5        29.93F
FALLS CITY     CLEAR     62  60  93 SE5       29.93F

...NORTHERN KANSAS...

CITY           SKY/WX    TMP DP  RH WIND       PRES   REMARKS
GOODLAND       CLOUDY    63  57  81 S16       30.03F
HILL CITY      CLEAR     66  58  75 SW8       29.96F
NORTON         SUNNY     63  52  67 SW6       29.95S
PHILLIPSBURG   CLEAR     64  57  77 CALM      29.94S
SMITH CENTER   PTCLDY    63  57  82 N3        29.94R
HAYS           CLOUDY    63  60  90 S12       29.96F
RUSSELL        MOCLDY    66  61  84 S18       29.91F
CONCORDIA      MOCLDY    73  60  63 S17       29.92F
SALINA         RAIN      73  64  73 SW28G36   29.96F
TOPEKA         MOCLDY    64  62  93 CALM      29.95F



USA.gov is the U.S. government's official web portal to all federal, state and local government web resources and services.